Athens, GA

9:52 PM EST on February 19, 2018 (GMT -0500)
Athens / Epps

Weather History for KAHN - June, 2013

Change the Weather History Date:

Thursday, June 6, 2013

  Actual Average Record
Temperature  
Mean Temperature 72 °F 76 °F  
Max Temperature 76 °F 87 °F 100 °F (1985)
Min Temperature 67 °F 64 °F 51 °F (1976)
Cooling Degree Days 7 11  
Month to date cooling degree days 66 62  
Year to date cooling degree days 245 302  
Since 1 June cooling degree days 66 62  
Growing Degree Days 20 (Base 50)    
Moisture  
Dew Point 68 °F    
Average Humidity 91    
Maximum Humidity 100    
Minimum Humidity 82    
Precipitation  
Precipitation 1.01 in 0.13 in 1.77 in (1901)
Month to date precipitation 2.96 0.74  
Year to date precipitation 26.04 19.85  
Sea Level Pressure  
Sea Level Pressure 29.89 in    
Wind  
Wind Speed 4 mph (East)    
Max Wind Speed 12 mph    
Max Gust Speed 16 mph    
Visibility 5 miles    
Events Rain , Thunderstorm    
T = Trace of Precipitation, MM = Missing Value Source: NWS Daily Summary

Daily Weather History Graph

Daily Weather History Graph

Search for Another Location

Airport or City:

Trip Planner

Search our weather history database for the weather conditions in past years. The results will help you decide how hot, cold, wet, or windy it might be!

Date:

Astronomy

Jun. 06, 2013 Rise Set
Actual Time 6:22 AM EDT 8:42 PM EDT
Civil Twilight 5:53 AM EDT 9:11 PM EDT
Nautical Twilight 5:17 AM EDT 9:46 PM EDT
Astronomical Twilight 4:39 AM EDT 10:25 PM EDT
Moon 4:58 AM EDT (6/6) 7:06 PM EDT (6/6)
Length of Visible Light 15h 18m
Length of Day
14h 20m
Waning Crescent, 4% of the Moon is Illuminated
Jun 6
Waning Crescent
Jun 8
New
Jun 16
First Quarter
Jun 23
Full
Jun 30
Last Quarter

Hourly Weather History & Observations

Time (EDT) Temp. Dew Point Humidity Pressure Visibility Wind Dir Wind Speed Gust Speed Precip Events Conditions
12:06 AM 69.8 °F 69.8 °F 100% 29.97 in 1.8 mi Calm Calm - 0.04 in Rain Heavy Rain
12:14 AM 69.8 °F 69.8 °F 100% 29.97 in 0.8 mi ESE 3.5 mph - 0.17 in Rain Heavy Rain
12:23 AM 69.8 °F 69.8 °F 100% 29.96 in 0.8 mi ENE 5.8 mph - 0.51 in Rain Heavy Rain
12:29 AM 69.8 °F 69.8 °F 100% 29.96 in 1.5 mi East 6.9 mph - 0.58 in Rain Rain
12:33 AM 69.8 °F 69.8 °F 100% 29.96 in 2.5 mi Calm Calm - 0.60 in Rain Rain
12:49 AM 69.8 °F 69.8 °F 100% 29.96 in 1.2 mi ENE 4.6 mph - 0.77 in Rain Heavy Rain
12:50 AM 70.0 °F 69.1 °F 97% 29.94 in 1.2 mi ENE 5.8 mph - 0.79 in Rain Heavy Rain
1:01 AM 69.8 °F 69.8 °F 100% 29.96 in 1.2 mi NE 5.8 mph - 0.23 in Rain Heavy Rain
1:05 AM 69.8 °F 69.8 °F 100% 29.96 in 2.0 mi NNE 5.8 mph - 0.26 in Rain Rain
1:18 AM 69.8 °F 69.8 °F 100% 29.97 in 2.0 mi Calm Calm - 0.32 in Rain , Thunderstorm Heavy Rain
1:29 AM 68.0 °F 66.2 °F 94% 29.97 in 1.8 mi North 8.1 mph - 0.39 in Rain , Thunderstorm Heavy Thunderstorms and Rain
1:39 AM 68.0 °F 66.2 °F 94% 29.96 in 1.2 mi ENE 8.1 mph - 0.57 in Rain , Thunderstorm Heavy Thunderstorms and Rain
1:42 AM 68.0 °F 66.2 °F 94% 29.96 in 1.5 mi ENE 8.1 mph - 0.64 in Rain , Thunderstorm Heavy Thunderstorms and Rain
1:51 AM 66.9 °F 66.0 °F 97% 29.94 in 2.5 mi East 6.9 mph - 0.68 in Rain , Thunderstorm Heavy Thunderstorms and Rain
2:06 AM 66.2 °F 66.2 °F 100% 29.94 in 3.0 mi East 6.9 mph - 0.11 in Rain , Thunderstorm Light Thunderstorms and Rain
2:29 AM 66.2 °F 66.2 °F 100% 29.92 in 6.0 mi East 6.9 mph - 0.17 in Rain Light Rain
2:51 AM 66.9 °F 66.0 °F 97% 29.90 in 6.0 mi East 6.9 mph - 0.23 in Rain Light Rain
3:03 AM 66.2 °F 66.2 °F 100% 29.91 in 8.0 mi East 6.9 mph - 0.01 in Rain Light Rain
3:14 AM 66.2 °F 66.2 °F 100% 29.91 in 8.0 mi East 6.9 mph - 0.02 in Rain Light Rain
3:51 AM 66.9 °F 66.0 °F 97% 29.88 in 10.0 mi ENE 4.6 mph - 0.03 in Rain Light Rain
4:51 AM 66.9 °F 66.0 °F 97% 29.88 in 6.0 mi ENE 4.6 mph - 0.00 in   Overcast
5:07 AM 66.2 °F 66.2 °F 100% 29.89 in 4.0 mi East 4.6 mph - 0.00 in Rain Light Rain
5:30 AM 66.2 °F 66.2 °F 100% 29.89 in 2.5 mi East 4.6 mph - 0.01 in   Overcast
5:42 AM 66.2 °F 66.2 °F 100% 29.89 in 3.0 mi East 4.6 mph - 0.02 in Rain Light Rain
5:51 AM 66.9 °F 66.9 °F 100% 29.88 in 5.0 mi East 3.5 mph - 0.02 in Rain Light Rain
6:00 AM 68.0 °F 66.2 °F 94% 29.89 in 2.5 mi ENE 3.5 mph - 0.00 in   Overcast
6:36 AM 68.0 °F 66.2 °F 94% 29.89 in 1.5 mi ENE 4.6 mph - 0.01 in Rain Light Rain
6:48 AM 68.0 °F 66.2 °F 94% 29.89 in 2.0 mi ENE 4.6 mph - 0.01 in Rain Light Rain
6:51 AM 68.0 °F 66.9 °F 96% 29.88 in 1.8 mi ENE 3.5 mph - 0.01 in Rain Light Rain
7:01 AM 68.0 °F 66.2 °F 94% 29.89 in 1.2 mi ENE 4.6 mph - 0.01 in   Overcast
7:08 AM 68.0 °F 66.2 °F 94% 29.89 in 2.0 mi ENE 5.8 mph - 0.01 in   Overcast
7:14 AM 68.0 °F 66.2 °F 94% 29.89 in 3.0 mi ENE 4.6 mph - 0.01 in   Overcast
7:51 AM 68.0 °F 66.9 °F 96% 29.88 in 6.0 mi ENE 3.5 mph - 0.01 in   Overcast
8:51 AM 70.0 °F 68.0 °F 93% 29.89 in 5.0 mi Variable 3.5 mph - N/A   Overcast
9:34 AM 73.4 °F 69.8 °F 88% 29.91 in 6.0 mi Calm Calm - N/A   Overcast
9:48 AM 73.4 °F 69.8 °F 88% 29.90 in 7.0 mi Calm Calm - N/A   Overcast
9:51 AM 72.0 °F 70.0 °F 93% 29.89 in 7.0 mi Calm Calm - N/A   Overcast
10:18 AM 73.4 °F 69.8 °F 88% 29.90 in 6.0 mi South 4.6 mph - N/A   Overcast
10:24 AM 73.4 °F 69.8 °F 88% 29.90 in 6.0 mi South 4.6 mph - N/A   Overcast
10:51 AM 73.9 °F 70.0 °F 87% 29.88 in 7.0 mi Variable 4.6 mph - N/A   Overcast
11:51 AM 75.0 °F 69.1 °F 82% 29.89 in 9.0 mi Variable 4.6 mph - N/A   Overcast
12:51 PM 75.0 °F 71.1 °F 87% 29.88 in 8.0 mi Variable 3.5 mph - 0.00 in   Overcast
1:06 PM 75.2 °F 69.8 °F 83% 29.89 in 9.0 mi South 6.9 mph - N/A   Overcast
1:39 PM 73.4 °F 69.8 °F 88% 29.89 in 4.0 mi South 6.9 mph - 0.00 in Rain Light Rain
1:49 PM 71.6 °F 69.8 °F 94% 29.89 in 2.0 mi South 5.8 mph - 0.01 in Rain Light Rain
1:51 PM 72.0 °F 70.0 °F 93% 29.88 in 1.8 mi Variable 4.6 mph - 0.01 in Rain Rain
2:06 PM 71.6 °F 69.8 °F 94% 29.88 in 3.0 mi South 5.8 mph - 0.02 in Rain Light Rain
2:22 PM 73.4 °F 69.8 °F 88% 29.88 in 2.5 mi Variable 4.6 mph - 0.03 in Rain Light Rain
2:33 PM 73.4 °F 69.8 °F 88% 29.87 in 5.0 mi SW 4.6 mph - 0.03 in Rain Light Rain
2:51 PM 73.9 °F 71.1 °F 91% 29.85 in 6.0 mi Variable 3.5 mph - 0.03 in   Overcast
3:51 PM 75.9 °F 70.0 °F 82% 29.83 in 8.0 mi SW 3.5 mph - N/A   Overcast
4:51 PM 75.9 °F 70.0 °F 82% 29.81 in 9.0 mi SSW 4.6 mph - N/A   Scattered Clouds
5:51 PM 73.9 °F 69.1 °F 85% 29.81 in 7.0 mi SSE 3.5 mph - 0.00 in Rain Light Rain
6:31 PM 71.6 °F 68.0 °F 88% 29.81 in 6.0 mi SE 5.8 mph - 0.00 in Rain Light Rain
6:38 PM 71.6 °F 66.2 °F 83% 29.81 in 9.0 mi Variable 4.6 mph - 0.00 in Rain Light Rain
6:51 PM 72.0 °F 68.0 °F 87% 29.79 in 9.0 mi Variable 4.6 mph - 0.00 in   Overcast
7:43 PM 71.6 °F 68.0 °F 88% 29.80 in 10.0 mi Calm Calm - N/A   Mostly Cloudy
7:51 PM 71.1 °F 68.0 °F 90% 29.79 in 10.0 mi Calm Calm - N/A   Mostly Cloudy
8:51 PM 70.0 °F 68.0 °F 93% 29.78 in 10.0 mi East 4.6 mph - 0.00 in Rain Light Rain
9:51 PM 69.1 °F 68.0 °F 96% 29.78 in 8.0 mi East 5.8 mph - 0.00 in Rain Light Rain
10:00 PM 69.8 °F 68.0 °F 94% 29.80 in 8.0 mi East 3.5 mph - 0.00 in Rain Light Rain
10:51 PM 69.1 °F 68.0 °F 96% 29.78 in 8.0 mi East 5.8 mph - 0.01 in Rain Light Rain
11:51 PM 69.1 °F 68.0 °F 96% 29.78 in 4.0 mi Calm Calm - 0.06 in Rain Rain